User: anonymous   Login
Location: Peebles
(55.6412°N, 3.1714°W)
Time: 21:13:10
(UTC+01:00)
Language:

X-37B - Orbit

View from above orbital plane
View from above orbital plane
View from above satellite
View from above satellite

Ground track
Ground track

The orbit data is extracted from the following two-line orbital elements,

1 45606U 20029A   22245.77419790 0.00000000  00000-0  00000-0 0    06
2 45606  45.0115 149.5634 0007612  73.6611 286.3385 15.78190095    01
Epoch (UTC): 02 September 2022 18:34:50
Eccentricity: 0.0007612
inclination: 45.0115°
perigee height: 330 km
apogee height: 340 km
right ascension of ascending node: 149.5634°
argument of perigee: 73.6611°
revolutions per day: 15.78190095
mean anomaly at epoch: 286.3385°
orbit number at epoch: 0

The dashed part of the orbit path shows where the satellite is in the earth's shadow,  

DLR